Location: Go�ngahuizen
(53.0821°N, 5.8849°E)
Time: 22:26:03
(UTC+00:00)

Cosmos 1535 Rocket - Pass Details

Date: 09 April 2020
Orbit: 949 x 1003 km, 83.0° (Epoch: 23 May)

Event Time Altitude Azimuth Distance (km) Brightness Sun altitude
Rises 21:36:38 0° 349° (NNW) 3,646 8.6 -23.7°
Reaches altitude 10° 21:39:08 10° 349° (NNW) 2,701 7.7 -23.9°
Maximum altitude 21:45:19 86° 261° (W) 976 4.4 -24.4°
Enters shadow 21:46:58 52° 177° (S) 1,187 4.6 -24.5°
